time_stamp(utc),avg(mph),gust(mph),direction(deg),12m_air_temp(f),sonic_u(cm/s),sonic_v(cm/s),sonic_w(cm/s),pressure,2m_air_temp(f),pyranometer(W/m^2)
"2018-06-22 00:02:07+00",3.3,4.3,,71.2,-63,-123,1,1009.06,71.3,0
"2018-06-22 00:07:07+00",4.1,5.1,,71.2,-71,-153,-4,1009,71.1,0
"2018-06-22 00:12:07+00",4.7,4.7,,71.2,-97,-172,4,1009.08,70.9,0
"2018-06-22 00:17:07+00",5.6,6.6,,71.1,-162,-192,8,1009.15,70.7,0
"2018-06-22 00:22:07+00",6.5,7.5,,71,-177,-224,4,1009.24,70.4,0
"2018-06-22 00:27:07+00",6.0,7.0,,71,-117,-226,-4,1009.27,70.2,0
"2018-06-22 00:32:07+00",6.9,7.9,,70.9,-159,-258,1,1009.47,69.9,0
"2018-06-22 00:37:07+00",5.7,5.7,,71,-106,-215,-2,1009.3,69.6,0
"2018-06-22 00:42:07+00",5.4,5.4,,70.8,-96,-202,-4,1009.34,69.5,0
"2018-06-22 00:47:07+00",6.3,6.3,,70.9,-142,-236,-1,1009.38,69.4,0
"2018-06-22 00:52:07+00",6.1,6.1,,70.8,-148,-227,0,1009.41,69.2,0
"2018-06-22 00:57:07+00",7.0,7.0,,70.8,-133,-262,-4,1009.45,69.1,0
"2018-06-22 01:02:07+00",5.9,5.9,,70.8,-126,-219,-3,1009.43,69.1,0
"2018-06-22 01:07:07+00",5.6,6.6,,70.8,-144,-203,-1,1009.5,69,0
"2018-06-22 01:12:07+00",6.7,7.7,,70.9,-218,-233,4,1009.69,68.9,0
"2018-06-22 01:17:07+00",8.2,9.2,,70.6,-253,-268,5,1009.75,69,0
"2018-06-22 01:22:07+00",8.0,9.0,,70.4,-221,-285,2,1009.73,69.1,0
"2018-06-22 01:27:07+00",7.4,8.4,,70.2,-189,-276,5,1009.76,69.1,0
"2018-06-22 01:32:07+00",5.7,6.7,,70.2,-152,-207,3,1009.73,69,0
"2018-06-22 01:37:07+00",5.3,5.3,,70.2,-134,-193,3,1009.82,68.9,0
"2018-06-22 01:42:07+00",4.9,4.9,,70.4,-145,-165,-2,1009.85,68.9,0
"2018-06-22 01:47:07+00",5.9,5.9,,70.4,-185,-156,4,1009.89,68.8,0
"2018-06-22 01:52:07+00",5.1,6.1,,70.5,-160,-172,0,1009.9,68.7,0
"2018-06-22 01:57:07+00",4.9,5.9,,70.5,-127,-177,-2,1009.93,68.7,0
"2018-06-22 02:02:07+00",5.5,6.5,,70.6,-138,-203,-3,1009.85,68.8,0
"2018-06-22 02:07:07+00",6.0,7.0,,70.7,-151,-226,-1,1009.82,68.8,0
"2018-06-22 02:12:07+00",5.5,6.5,,70.8,-172,-188,0,1009.89,68.7,0
"2018-06-22 02:17:07+00",5.3,5.3,,70.8,-168,-164,0,1009.78,68.6,0
"2018-06-22 02:22:07+00",5.6,6.6,,70.8,-177,-169,2,1009.9,68.6,0
"2018-06-22 02:27:07+00",6.8,7.8,,70.9,-215,-189,4,1010.03,68.6,0
"2018-06-22 02:32:07+00",6.5,7.5,,71,-217,-172,9,1010.04,68.7,0
"2018-06-22 02:37:07+00",6.4,7.4,,71.1,-221,-166,12,1010.07,68.5,0
"2018-06-22 02:42:07+00",6.6,6.6,,71.3,-230,-166,12,1009.96,68.4,0
"2018-06-22 02:47:07+00",6.3,7.3,,71.3,-223,-153,10,1010.01,68.3,0
"2018-06-22 02:52:07+00",7.1,7.1,,71.6,-223,-190,3,1009.92,68.3,0
"2018-06-22 02:57:07+00",4.9,5.9,,71.4,-156,-157,2,1010.03,68.4,0
"2018-06-22 03:02:07+00",6.0,7.0,,71.3,-157,-204,0,1009.97,68.6,0
"2018-06-22 03:07:07+00",5.0,5.0,,71.5,-160,-161,-2,1009.99,68.8,0
"2018-06-22 03:12:07+00",4.8,4.8,,71.6,-147,-140,-2,1009.87,68.8,0
"2018-06-22 03:17:07+00",4.0,5.0,,71.7,-121,-135,-1,1009.84,68.9,0
"2018-06-22 03:22:07+00",3.5,3.5,,71.6,-109,-122,2,1009.86,69.1,0
"2018-06-22 03:27:07+00",3.8,3.8,,71.6,-96,-125,0,1009.7,69.1,0
"2018-06-22 03:32:07+00",2.9,2.9,,71.6,-92,-68,2,1009.79,69.2,0
"2018-06-22 03:37:07+00",1.5,1.5,,71.5,-62,-4,-1,1009.77,69.2,0
"2018-06-22 03:42:07+00",1.2,1.2,,71.4,-49,-7,-1,1009.93,69.1,0
"2018-06-22 03:47:07+00",1.3,1.3,,71.3,-47,15,3,1009.96,69,0
"2018-06-22 03:52:07+00",1.1,1.1,,71.1,-30,28,2,1009.96,69.1,0
"2018-06-22 03:57:07+00",1.2,1.2,,71.1,-42,22,1,1010.05,69.1,0
"2018-06-22 04:02:07+00",2.1,2.1,,71.2,-63,54,5,1010.17,69.1,0
"2018-06-22 04:07:07+00",2.6,2.6,,71.3,-87,53,6,1010.06,69.1,0
"2018-06-22 04:12:07+00",2.5,2.5,,71.5,-90,48,6,1010.05,69,0
"2018-06-22 04:17:07+00",2.1,2.1,,71.7,-75,44,1,1010.04,69,0
"2018-06-22 04:22:07+00",2.4,2.4,,71.2,37,78,0,1009.98,69.1,0
"2018-06-22 04:27:07+00",2.3,3.3,,70.9,16,87,6,1009.95,69,0
"2018-06-22 04:32:07+00",3.5,3.5,,70.7,30,138,2,1009.96,68.8,0
"2018-06-22 04:37:07+00",3.8,3.8,,70.6,20,149,0,1010.05,68.6,0
"2018-06-22 04:42:07+00",3.5,3.5,,70.6,37,124,-1,1010.09,68.5,0
"2018-06-22 04:47:07+00",3.1,3.1,,70.5,61,105,1,1010.16,68.5,0
"2018-06-22 04:52:07+00",2.9,2.9,,70.5,85,67,2,1010.21,68.5,0
"2018-06-22 04:57:07+00",2.0,2.0,,70.1,80,-3,-1,1010.3,68.5,0
"2018-06-22 05:02:07+00",2.0,2.0,,70,74,-29,1,1010.22,68.4,0
"2018-06-22 05:07:07+00",3.0,3.0,,70.1,103,-65,-2,1010.31,68.5,0
"2018-06-22 05:12:07+00",3.6,4.6,,70.2,145,-49,-2,1010.33,68.5,0
"2018-06-22 05:17:07+00",3.5,3.5,,70.2,141,-25,2,1010.27,68.4,0
"2018-06-22 05:22:07+00",3.6,4.6,,70,150,-31,4,1010.31,68.4,0
"2018-06-22 05:27:07+00",4.5,5.5,,69.8,182,-66,5,1010.4,68.2,0
"2018-06-22 05:32:07+00",5.8,5.8,,69.6,230,-98,9,1010.46,68.1,0
"2018-06-22 05:37:07+00",5.7,5.7,,69.5,223,-109,7,1010.65,67.9,0
"2018-06-22 05:42:07+00",5.0,5.0,,69.5,182,-104,6,1010.66,67.8,0
"2018-06-22 05:47:07+00",5.3,5.3,,69.5,215,-82,2,1010.69,67.7,0
"2018-06-22 05:52:07+00",5.9,6.9,,69.9,250,-64,1,1010.73,67.5,0
"2018-06-22 05:57:07+00",5.4,5.4,,70.1,223,-69,6,1010.57,67.4,0
"2018-06-22 06:02:07+00",4.4,4.4,,70.2,180,-41,8,1010.65,67.4,0
"2018-06-22 06:07:07+00",4.6,5.6,,69.9,195,-28,8,1010.6,67.4,0
"2018-06-22 06:12:07+00",5.4,5.4,,69.5,231,-10,16,1010.67,67.3,0
"2018-06-22 06:17:07+00",5.2,5.2,,69.3,224,-1,15,1010.65,67.2,0
"2018-06-22 06:22:07+00",5.2,6.2,,69.1,218,-12,9,1010.71,67.1,0
"2018-06-22 06:27:07+00",6.6,6.6,,69,288,-23,15,1010.63,67.1,0
"2018-06-22 06:32:07+00",7.7,8.7,,68.9,334,37,15,1010.6,67,0
"2018-06-22 06:37:07+00",8.2,9.2,,68.8,356,45,19,1010.7,67.1,0
"2018-06-22 06:42:07+00",5.8,6.8,,68.8,249,10,9,1010.63,67.1,0
"2018-06-22 06:47:07+00",5.4,6.4,,68.7,231,-21,9,1010.75,67.2,0
"2018-06-22 06:52:07+00",5.6,6.6,,68.8,241,-44,3,1010.8,67.2,0
"2018-06-22 06:57:07+00",5.5,6.5,,68.7,234,-39,6,1010.82,67.2,0
"2018-06-22 07:02:07+00",5.3,5.3,,68.7,221,-64,3,1010.86,67.2,0
"2018-06-22 07:07:07+00",5.7,5.7,,68.6,244,-48,6,1010.8,67.1,0
"2018-06-22 07:12:07+00",6.1,6.1,,68.6,264,-6,12,1010.88,67,0
"2018-06-22 07:17:07+00",6.7,6.7,,68.7,292,19,17,1010.79,67,0
"2018-06-22 07:22:07+00",6.2,6.2,,68.6,265,27,19,1010.8,67,0
"2018-06-22 07:27:07+00",6.0,7.0,,68.5,263,14,13,1010.86,67,0
"2018-06-22 07:32:07+00",7.7,8.7,,68.4,332,79,18,1010.76,67,0
"2018-06-22 07:37:07+00",8.3,9.3,,68.4,356,88,21,1010.74,67.1,0
"2018-06-22 07:42:07+00",9.0,10.0,,68.2,386,102,21,1010.7,67.2,0
"2018-06-22 07:47:07+00",10.9,13.9,,68.1,485,62,20,1010.77,67.2,0
"2018-06-22 07:52:07+00",11.0,12.0,,68.2,486,72,24,1010.79,67,0
"2018-06-22 07:57:07+00",10.9,12.9,,68.2,480,50,30,1010.77,67.2,0
"2018-06-22 08:02:07+00",13.3,15.3,,67.9,596,5,10,1010.83,67.3,0
"2018-06-22 08:07:07+00",13.9,15.9,,67.6,620,-18,25,1010.92,67.1,0
"2018-06-22 08:12:07+00",12.4,14.4,,67.3,558,-22,19,1011.07,67.1,0
"2018-06-22 08:17:07+00",14.0,15.0,,66.8,622,26,20,1011.09,66.9,0
"2018-06-22 08:22:07+00",14.0,15.0,,66.6,623,16,28,1011.12,66.6,0
"2018-06-22 08:27:07+00",13.1,15.1,,66.4,572,140,23,1011.19,66.5,0
"2018-06-22 08:32:07+00",14.4,15.4,,66.2,643,94,23,1011.3,66.2,0
"2018-06-22 08:37:07+00",12.5,13.5,,66.1,554,88,7,1011.43,66.1,0
"2018-06-22 08:42:07+00",10.7,12.7,,66.1,480,10,22,1011.48,66.1,0
"2018-06-22 08:47:07+00",10.2,11.2,,66.2,452,-16,27,1011.51,66,0
"2018-06-22 08:52:07+00",12.0,13.0,,66.1,533,-35,1,1011.63,65.9,0
"2018-06-22 08:57:07+00",11.2,12.2,,66.3,494,-14,3,1011.76,66,0
"2018-06-22 09:02:07+00",11.8,12.8,,66.4,527,39,22,1011.81,66.1,0
"2018-06-22 09:07:07+00",12.1,14.1,,66.5,543,59,25,1011.77,66.1,0
"2018-06-22 09:12:07+00",11.4,12.4,,66.5,510,28,26,1011.73,66.1,0
"2018-06-22 09:17:07+00",13.0,14.0,,66.6,570,103,22,1011.85,66.2,0
"2018-06-22 09:22:07+00",10.9,14.9,,66.6,494,33,17,1011.85,66.3,0
"2018-06-22 09:27:07+00",11.3,13.3,,66.6,507,15,35,1011.95,66.3,0
"2018-06-22 09:32:07+00",13.2,15.2,,66.6,577,126,25,1011.88,66.3,0
"2018-06-22 09:37:07+00",10.8,13.8,,66.5,477,108,30,1011.96,66.4,0
"2018-06-22 09:42:07+00",11.5,13.5,,66.5,503,118,44,1012.03,66.3,0
"2018-06-22 09:47:07+00",12.1,14.1,,66.4,539,66,14,1012.26,66.2,0
"2018-06-22 09:52:07+00",11.5,13.5,,66.4,511,66,12,1012.4,66.2,0
"2018-06-22 09:57:07+00",11.3,12.3,,66.5,501,2,12,1012.47,66.3,0
"2018-06-22 10:02:07+00",10.9,12.9,,66.6,487,4,17,1012.55,66.3,0
"2018-06-22 10:07:07+00",12.8,14.8,,66.5,563,84,26,1012.62,66.4,0
"2018-06-22 10:12:07+00",13.2,14.2,,66.5,587,60,26,1012.66,66.3,0
"2018-06-22 10:17:07+00",11.8,13.8,,66.5,522,67,10,1012.68,66.4,0
"2018-06-22 10:22:07+00",14.9,16.9,,66.5,659,104,27,1012.8,66.4,0
"2018-06-22 10:27:07+00",13.8,15.8,,66.4,611,71,28,1012.79,66.3,0
"2018-06-22 10:32:07+00",12.9,14.9,,66.5,568,43,36,1012.89,66.4,0
"2018-06-22 10:37:07+00",14.7,16.7,,66.6,655,93,23,1012.9,66.4,0
"2018-06-22 10:42:07+00",14.0,16.0,,66.6,621,93,20,1012.82,66.6,0
"2018-06-22 10:47:07+00",12.2,14.2,,66.7,539,118,22,1012.85,66.7,2.1
"2018-06-22 10:52:07+00",14.5,16.5,,66.7,640,93,29,1012.94,66.7,6.6
"2018-06-22 10:57:07+00",17.1,19.1,,66.9,760,126,46,1012.91,66.8,9.8
"2018-06-22 11:02:07+00",14.0,16.0,,67,633,42,34,1013.01,67,12.3
"2018-06-22 11:07:07+00",14.2,16.2,,67,644,10,18,1013.17,67.1,1.5
"2018-06-22 11:12:07+00",15.2,17.2,,67,668,105,37,1013.24,67.1,0.1
"2018-06-22 11:17:07+00",14.0,17.0,,67.1,622,57,52,1013.38,67.2,5.4
"2018-06-22 11:22:07+00",16.9,20.9,,67,761,41,11,1013.36,67.2,7.9
"2018-06-22 11:27:07+00",18.2,21.2,,67.1,810,59,35,1013.36,67.3,22
"2018-06-22 11:32:07+00",18.3,20.3,,67,805,128,30,1013.38,67.3,17.9
"2018-06-22 11:37:07+00",17.0,20.0,,67,762,3,44,1013.49,67.3,31.4
"2018-06-22 11:42:07+00",18.2,20.2,,66.9,810,19,34,1013.45,67.3,10.2
"2018-06-22 11:47:07+00",19.8,21.8,,66.8,884,75,19,1013.52,67.2,38.3
"2018-06-22 11:52:07+00",16.4,18.4,,66.9,726,90,37,1013.57,67.3,41.9
"2018-06-22 11:57:07+00",18.0,20.0,,67,801,139,24,1013.66,67.5,65.9
"2018-06-22 12:02:07+00",20.7,22.7,,67,926,132,27,1013.62,67.5,39
"2018-06-22 12:07:07+00",19.1,21.1,,67,855,107,22,1013.77,67.5,38.2
"2018-06-22 12:12:07+00",17.7,19.7,,66.9,793,92,47,1013.77,67.5,52.1
"2018-06-22 12:17:07+00",19.1,21.1,,67,845,173,35,1013.81,67.5,53.3
"2018-06-22 12:22:07+00",18.4,20.4,,66.9,817,104,18,1013.87,67.5,54.5
"2018-06-22 12:27:07+00",18.0,23.0,,67.2,797,99,48,1013.81,67.9,128
"2018-06-22 12:32:07+00",19.1,22.1,,67.2,861,72,26,1013.84,68,73.3
"2018-06-22 12:37:07+00",17.8,20.8,,67.3,791,88,65,1013.84,68,38.8
"2018-06-22 12:42:07+00",19.9,23.9,,67.1,895,102,13,1013.97,67.8,49.1
"2018-06-22 12:47:07+00",19.8,21.8,,67,885,150,44,1014.04,67.8,56
"2018-06-22 12:52:07+00",21.0,23.0,,67,951,92,16,1014.04,67.7,29
"2018-06-22 12:57:07+00",18.7,20.7,,67.1,834,116,60,1014.17,67.8,82.4
"2018-06-22 13:02:07+00",16.6,18.6,,67.1,747,31,31,1014.19,67.9,46.9
"2018-06-22 13:07:07+00",19.7,21.7,,67,877,12,36,1014.12,67.9,39.4
"2018-06-22 13:12:07+00",21.1,24.1,,67,944,-30,9,1014.08,67.7,77.8
"2018-06-22 13:17:07+00",22.9,26.9,,67.2,1029,44,31,1014.03,67.8,76.2
"2018-06-22 13:22:07+00",21.6,24.6,,67,970,71,31,1014.11,67.9,102.9
"2018-06-22 13:27:07+00",20.6,23.6,,67.1,923,96,44,1014.21,68.1,101.9
"2018-06-22 13:32:07+00",19.9,21.9,,67.3,887,108,41,1014.3,68.2,88.8
"2018-06-22 13:37:07+00",22.5,25.5,,67.1,1014,-3,23,1014.21,68.1,117.2
"2018-06-22 13:42:07+00",22.5,25.5,,67.3,1018,40,32,1014.25,68.2,111.9
"2018-06-22 13:47:07+00",21.4,23.4,,67.1,958,137,31,1014.33,68.3,110.7
"2018-06-22 13:52:07+00",19.4,23.4,,67.1,864,149,57,1014.41,68.3,77
"2018-06-22 13:57:07+00",22.1,24.1,,66.9,988,124,41,1014.26,68.1,35.8
"2018-06-22 14:02:07+00",21.5,24.5,,66.9,972,55,18,1014.37,67.9,30.9
"2018-06-22 14:07:07+00",21.0,24.0,,66.7,954,19,26,1014.42,67.7,63.2
"2018-06-22 14:12:07+00",21.3,25.3,,66.7,957,43,54,1014.52,67.5,74.1
"2018-06-22 14:17:07+00",21.3,23.3,,66.5,950,42,31,1014.6,67.3,33.6
"2018-06-22 14:22:07+00",20.1,22.1,,66.5,903,18,32,1014.64,67.3,51.7
"2018-06-22 14:27:07+00",20.8,23.8,,66.4,930,-46,14,1014.64,67.1,21.1
"2018-06-22 14:32:07+00",19.8,21.8,,66.4,882,-147,5,1014.72,67,23.9
"2018-06-22 14:37:07+00",18.7,21.7,,66.3,831,-127,8,1014.77,66.8,27.1
"2018-06-22 14:42:07+00",20.0,24.0,,66.4,891,-137,5,1014.89,66.8,13.8
"2018-06-22 14:47:07+00",19.4,22.4,,66.3,870,-117,13,1014.83,66.8,22.1
"2018-06-22 14:52:07+00",20.5,24.5,,66.3,933,-20,29,1014.83,66.7,39.8
"2018-06-22 14:57:07+00",18.3,22.3,,66.6,820,-153,17,1014.8,67.1,78.1
"2018-06-22 15:02:07+00",18.0,21.0,,66.3,793,-176,34,1014.86,67,80
"2018-06-22 15:07:07+00",17.9,20.9,,66.4,784,-137,34,1014.85,67.1,78.4
"2018-06-22 15:12:07+00",21.8,23.8,,66.2,946,-248,-2,1014.9,67.1,71.3
"2018-06-22 15:17:07+00",21.0,25.0,,66.1,941,-2,34,1015.04,67,67.2
"2018-06-22 15:22:07+00",17.4,20.4,,66.2,770,-94,54,1015.18,67,74.2
"2018-06-22 15:27:07+00",16.2,17.2,,66.2,737,-40,11,1015.12,67,62.3
"2018-06-22 15:32:07+00",18.1,21.1,,66.1,809,-35,7,1015.22,67,81.9
"2018-06-22 15:37:07+00",18.9,21.9,,66.2,852,26,20,1015.31,67.1,85.8
"2018-06-22 15:42:07+00",17.1,21.1,,66.4,772,-27,27,1015.32,67.4,146.1
"2018-06-22 15:47:07+00",19.3,21.3,,66.5,865,-102,-10,1015.27,67.8,122
"2018-06-22 15:52:07+00",19.7,21.7,,66.4,880,85,27,1015.4,68,190.4
"2018-06-22 15:57:07+00",17.4,21.4,,66.6,774,-61,36,1015.35,68.2,128.4
"2018-06-22 16:02:07+00",16.2,18.2,,66.6,724,32,13,1015.37,68.3,184.2
"2018-06-22 16:07:07+00",18.4,23.4,,66.8,824,-82,20,1015.47,68.3,192.3
"2018-06-22 16:12:07+00",19.2,21.2,,66.7,844,-199,7,1015.44,68.2,271.1
"2018-06-22 16:17:07+00",17.5,19.5,,67,791,-50,-6,1015.32,69,530.2
"2018-06-22 16:22:07+00",17.3,19.3,,67,777,-26,19,1015.32,69.6,339.9
"2018-06-22 16:27:07+00",18.4,21.4,,67.4,825,-49,25,1015.32,69.8,682.4
"2018-06-22 16:32:07+00",18.4,21.4,,67.6,824,-55,45,1015.26,70.4,303.4
"2018-06-22 16:37:07+00",20.7,22.7,,67,922,-95,3,1015.22,69.9,255.6
"2018-06-22 16:42:07+00",19.5,21.5,,67.1,874,-35,13,1015.28,69.9,228
"2018-06-22 16:47:07+00",18.1,21.1,,67,812,-83,6,1015.38,69.2,163
"2018-06-22 16:52:07+00",18.6,21.6,,67,834,12,52,1015.36,69,99
"2018-06-22 16:57:07+00",17.8,19.8,,66.8,807,-56,9,1015.32,68.5,90
"2018-06-22 17:02:07+00",16.0,18.0,,67.1,723,-46,49,1015.38,68.4,106.8
"2018-06-22 17:07:07+00",17.6,20.6,,66.9,800,-94,29,1015.33,68.2,98.6
"2018-06-22 17:12:07+00",21.0,22.0,,66.9,944,-68,9,1015.21,68.3,130.8
"2018-06-22 17:17:07+00",18.7,20.7,,67,841,-14,20,1015.15,68.4,181.2
"2018-06-22 17:22:07+00",19.5,20.5,,67.1,881,-18,10,1015.18,68.9,187.6
"2018-06-22 17:27:07+00",19.2,22.2,,67,869,-11,5,1015.06,68.9,167.2
"2018-06-22 17:32:07+00",17.8,20.8,,66.9,805,25,37,1015.18,68.8,141.1
"2018-06-22 17:37:07+00",19.6,21.6,,67.1,867,142,39,1015.2,69.1,149.4
"2018-06-22 17:42:07+00",19.2,22.2,,66.9,863,51,53,1015.15,68.9,172.7
"2018-06-22 17:47:07+00",19.2,23.2,,67,855,119,48,1015.12,68.7,102.2
"2018-06-22 17:52:07+00",21.2,23.2,,66.8,955,88,23,1014.99,68.5,120.1
"2018-06-22 17:57:07+00",19.2,22.2,,67,860,76,51,1014.94,68.6,168.4
"2018-06-22 18:02:07+00",19.2,21.2,,66.9,856,71,48,1015.05,68.7,131.8
"2018-06-22 18:07:07+00",20.8,21.8,,66.8,938,40,15,1015.05,68.7,153
"2018-06-22 18:12:07+00",19.4,21.4,,67,877,8,36,1015.01,68.9,171.2
"2018-06-22 18:17:07+00",20.1,23.1,,67.1,887,224,64,1014.93,69.1,213.7
"2018-06-22 18:22:07+00",18.9,20.9,,67.3,845,79,47,1014.98,69.5,212.1
"2018-06-22 18:27:07+00",17.0,19.0,,67.8,752,138,82,1014.9,70,199.8
"2018-06-22 18:32:07+00",16.5,19.5,,67.5,736,73,37,1014.93,70,276.9
"2018-06-22 18:37:07+00",19.6,21.6,,67,879,63,19,1014.93,69.7,118.8
"2018-06-22 18:42:07+00",19.0,22.0,,66.9,834,204,42,1014.85,69.1,86.1
"2018-06-22 18:47:07+00",18.8,20.8,,66.8,835,135,29,1014.93,68.8,98.3
"2018-06-22 18:52:07+00",20.7,22.7,,66.8,932,101,31,1014.78,68.7,144.9
"2018-06-22 18:57:07+00",20.6,23.6,,66.8,925,30,10,1014.71,68.7,156.8
"2018-06-22 19:02:07+00",18.7,21.7,,67.1,829,58,37,1014.76,68.9,145.1
"2018-06-22 19:07:07+00",19.9,20.9,,66.8,896,47,22,1014.83,68.9,159.5
"2018-06-22 19:12:07+00",17.2,19.2,,67.2,771,113,55,1014.8,68.9,100.5
"2018-06-22 19:17:07+00",19.3,22.3,,67.2,864,129,44,1014.75,68.8,94.3
"2018-06-22 19:22:07+00",17.8,21.8,,67,808,14,33,1014.83,68.6,108.6
"2018-06-22 19:27:07+00",17.8,19.8,,66.9,781,194,46,1014.77,68.6,103.5
"2018-06-22 19:32:07+00",18.5,20.5,,67,824,33,15,1014.86,68.7,104.8
"2018-06-22 19:37:07+00",18.4,20.4,,66.9,822,120,18,1014.89,68.6,87.1
"2018-06-22 19:42:07+00",19.1,20.1,,66.6,857,96,26,1014.87,68.4,99.1
"2018-06-22 19:47:07+00",18.8,20.8,,66.6,838,124,26,1014.82,68.3,88.6
"2018-06-22 19:52:07+00",17.5,19.5,,66.7,774,151,49,1014.89,68.2,68.3
"2018-06-22 19:57:07+00",18.6,20.6,,66.7,817,123,27,1014.72,68.2,67.5
"2018-06-22 20:02:07+00",19.0,22.0,,66.6,845,106,33,1014.57,68.1,81.3
"2018-06-22 20:07:07+00",18.9,21.9,,66.6,846,40,30,1014.49,68,137.1
"2018-06-22 20:12:07+00",19.7,21.7,,66.7,878,120,27,1014.46,68.4,181.3
"2018-06-22 20:17:07+00",20.6,22.6,,66.9,927,-14,-5,1014.2,68.7,178
"2018-06-22 20:22:07+00",20.5,23.5,,67.1,924,103,38,1014.04,69,172.3
"2018-06-22 20:27:07+00",21.3,26.3,,67,967,58,31,1014.06,69.3,332.9
"2018-06-22 20:32:07+00",19.1,23.1,,67.3,851,98,25,1014.17,69.8,180.5
"2018-06-22 20:37:07+00",19.9,21.9,,66.9,907,11,35,1014.14,69.5,153.8
"2018-06-22 20:42:07+00",21.1,24.1,,66.7,937,141,31,1014.07,68.8,115.8
"2018-06-22 20:47:07+00",21.0,25.0,,66.7,938,72,33,1014.1,68.7,159.1
"2018-06-22 20:52:07+00",20.9,22.9,,66.6,942,54,37,1014.18,68.5,141.2
"2018-06-22 20:57:07+00",20.6,23.6,,66.7,921,122,41,1014.1,68.6,139
"2018-06-22 21:02:07+00",20.5,23.5,,66.6,922,96,45,1014.07,68.4,67.3
"2018-06-22 21:07:07+00",23.0,25.0,,66.3,1026,101,29,1013.98,67.9,34.3
"2018-06-22 21:12:07+00",20.7,23.7,,66.4,928,85,29,1013.88,67.7,49.6
"2018-06-22 21:17:07+00",22.2,25.2,,66.2,994,84,42,1013.84,67.5,47.4
"2018-06-22 21:22:07+00",20.7,22.7,,66.3,936,-29,21,1013.7,67.4,89.1
"2018-06-22 21:27:07+00",20.8,24.8,,66.3,938,20,15,1013.78,67.4,48.2
"2018-06-22 21:32:07+00",19.6,21.6,,66.2,887,39,26,1013.78,67.3,35.5
"2018-06-22 21:37:07+00",20.1,23.1,,66.2,913,38,25,1013.77,67.1,26.8
"2018-06-22 21:42:07+00",20.7,23.7,,66.2,938,99,20,1013.67,67.1,21.1
"2018-06-22 21:47:07+00",18.9,20.9,,66.1,852,100,28,1013.6,67,14
"2018-06-22 21:52:07+00",19.4,21.4,,66.1,871,56,32,1013.7,67,10.1
"2018-06-22 21:57:07+00",20.0,23.0,,66,899,65,33,1013.63,66.9,8.5
"2018-06-22 22:02:07+00",18.6,23.6,,66.1,840,102,38,1013.72,66.8,11.2
"2018-06-22 22:07:07+00",18.5,20.5,,66.1,825,75,38,1013.73,66.8,13.2
"2018-06-22 22:12:07+00",19.7,21.7,,66.1,884,37,31,1013.73,66.8,10.2
"2018-06-22 22:17:07+00",16.3,19.3,,66.2,722,112,53,1013.84,66.8,2.2
"2018-06-22 22:22:07+00",19.6,22.6,,66.1,878,49,24,1013.76,66.7,1.8
"2018-06-22 22:27:07+00",16.5,19.5,,66.2,732,113,29,1013.79,66.7,1
"2018-06-22 22:32:07+00",20.6,22.6,,66.2,921,55,17,1013.84,66.7,0
"2018-06-22 22:37:07+00",18.7,22.7,,66.2,834,23,25,1013.74,66.7,0
"2018-06-22 22:42:07+00",18.5,20.5,,66.3,829,41,32,1013.77,66.7,0
"2018-06-22 22:47:07+00",15.7,16.7,,66.3,702,18,37,1013.75,66.7,0
"2018-06-22 22:52:07+00",16.1,19.1,,66.3,729,22,17,1013.8,66.8,0
"2018-06-22 22:57:07+00",18.8,21.8,,66.2,837,68,37,1013.65,66.7,0
"2018-06-22 23:02:07+00",19.7,21.7,,66.2,877,105,22,1013.63,66.6,0
"2018-06-22 23:07:07+00",19.0,22.0,,66.2,844,64,38,1013.69,66.5,0
"2018-06-22 23:12:07+00",16.8,20.8,,66.2,739,76,31,1013.66,66.4,0
"2018-06-22 23:17:07+00",18.4,19.4,,66.1,825,88,14,1013.66,66.3,0
"2018-06-22 23:22:07+00",15.5,18.5,,66.2,680,97,46,1013.69,66.3,0
"2018-06-22 23:27:07+00",15.7,18.7,,66.2,703,59,54,1013.66,66.3,0
"2018-06-22 23:32:07+00",17.5,19.5,,66.2,779,65,19,1013.7,66.3,0
"2018-06-22 23:37:07+00",17.7,19.7,,66.2,798,94,23,1013.68,66.3,0
"2018-06-22 23:42:07+00",20.7,23.7,,66.2,931,76,32,1013.57,66.3,0
"2018-06-22 23:47:07+00",19.2,22.2,,66.2,855,52,40,1013.63,66.3,0
"2018-06-22 23:52:07+00",19.1,21.1,,66.2,857,57,22,1013.61,66.4,0
"2018-06-22 23:57:07+00",17.6,20.6,,66.2,795,23,47,1013.6,66.3,0
